#timestamp,LO_Frequency,Hit 
1502110815.1,286046964.5,N
1502110816.0,286046964.5,N
1502110835.8,286046964.9,N
1502110855.7,286046966.0,N
1502110875.5,286046965.5,N
1502110895.3,286046963.0,N
1502110915.1,286046964.2,N
1502110935.9,286046964.1,N
1502110955.7,286046963.7,N
1502110975.5,286046965.8,N
1502110995.4,286046967.6,N
1502111015.2,286046965.6,N
1502111035.0,286046965.5,N
1502111035.9,286046965.5,N
1502111055.8,286046965.7,N
1502111075.6,286046965.3,N
1502111095.4,286046961.3,N
1502111115.3,286046962.9,N
1502111135.1,286046963.5,N
1502111136.0,286046963.5,N
1502111155.8,286046967.1,N
1502111175.7,286046964.8,N
1502111195.5,286046966.3,N
1502111215.3,286046970.5,N
1502111235.2,286046967.7,N
1502111255.9,286046968.2,N
1502111275.7,286046968.0,N
1502111295.5,286046968.6,N
1502111315.4,286046966.5,N
1502111335.2,286046966.8,N
1502111355.0,286046967.0,N
1502111355.9,286046967.0,N
1502111375.8,286046965.0,N
1502111395.6,286046965.0,N
1502111415.4,286046965.7,N
1502111435.3,286046964.2,N
1502111455.1,286046964.4,N
1502111456.0,286046964.4,N
1502111475.8,286046965.0,N
1502111495.7,286046964.8,N
1502111515.5,286046963.1,N
1502111535.3,286046965.5,N
1502111555.1,286046966.0,N
1502111575.9,286046965.9,N
1502111595.7,286046963.1,N
1502111615.5,286046963.7,N
1502111635.4,286046965.9,N
1502111655.2,286046965.5,N
1502111675.0,286046963.4,N
1502111675.9,286046963.4,N
1502111695.8,286046966.0,N
1502111715.6,286046965.8,N
1502111735.4,286046964.7,N
1502111755.3,286046969.1,N
1502111775.1,286046967.0,N
1502111776.0,286046967.0,N
1502111795.8,286046966.8,N
1502111815.7,286046964.9,N
1502111835.5,286046965.2,N
1502111855.3,286046967.1,N
1502111875.2,286046966.6,N
1502111895.9,286046966.6,N
1502111915.7,286046968.4,N
1502111935.5,286046965.0,N
1502111955.4,286046967.6,N
1502111975.2,286046962.9,N
1502111995.0,286046965.2,N
1502111995.9,286046965.2,N
1502112015.8,286046963.1,N
1502112035.6,286046964.4,N
1502112055.4,286046966.9,N
1502112075.3,286046965.2,N
1502112095.1,286046967.1,N
1502112096.0,286046967.1,N
1502112115.8,286046965.2,N
1502112135.7,286046967.0,N
1502112155.5,286046965.9,N
1502112175.3,286046965.1,N
1502112195.2,286046964.7,N
1502112215.9,286046967.2,N
1502112235.7,286046964.5,N
1502112255.5,286046965.0,N
1502112275.4,286046966.8,N
1502112295.2,286046966.4,N
1502112315.0,286046965.0,N
1502112315.9,286046965.0,N
1502112335.8,286046964.7,N
1502112355.6,286046965.7,N
1502112375.4,286046965.0,N
1502112395.3,286046965.8,N
1502112415.1,286046964.8,N
1502112416.0,286046964.8,N
1502112435.8,286046964.0,N
1502112455.7,286046964.4,N
1502112475.5,286046963.3,N
1502112495.3,286046963.0,N
1502112515.2,286046963.4,N
1502112535.9,286046963.5,N
1502112555.7,286046963.6,N
1502112575.5,286046961.3,N
1502112595.4,286046961.9,N
1502112615.2,286046963.6,N
1502112635.0,286046963.5,N
1502112635.9,286046963.5,N
1502112655.8,286046963.8,N
1502112675.6,286046963.0,N
1502112695.4,286046965.9,N
1502112715.3,286046964.6,N
1502112735.1,286046966.0,N
1502112736.0,286046966.0,N
1502112755.8,286046963.2,N
1502112775.7,286046963.2,N
1502112795.5,286046963.5,N
1502112815.3,286046964.2,N
1502112835.2,286046963.7,N
1502112855.9,286046963.8,N
1502112875.7,286046963.5,N
1502112895.5,286046963.0,N
1502112915.4,286046965.4,N
1502112935.2,286046964.7,N
1502112955.0,286046963.0,N
1502112955.9,286046963.0,N
1502112975.8,286046967.3,N
1502112995.6,286046965.0,N
1502113015.4,286046964.5,N
1502113035.3,286046965.3,N
1502113055.1,286046964.7,N
1502113056.0,286046964.7,N
1502113075.8,286046964.6,N
1502113095.7,286046965.2,N
1502113115.5,286046963.9,N
1502113135.3,286046965.7,N
1502113155.2,286046962.9,N
1502113175.9,286046965.1,N
1502113195.7,286046965.8,N
1502113215.5,286046965.1,N
1502113235.4,286046961.4,N
1502113255.2,286046961.3,N
1502113275.0,286046965.5,N
1502113275.9,286046965.5,N
1502113295.8,286046961.6,N
1502113315.6,286046964.2,N
1502113335.4,286046963.3,N
1502113355.3,286046963.1,N
1502113375.1,286046963.5,N
1502113376.0,286046963.5,N
1502113395.8,286046966.0,N
1502113415.7,286046963.6,N
1502113435.5,286046962.2,N
1502113455.3,286046963.8,N
1502113475.1,286046963.5,N
1502113495.9,286046963.1,N
1502113515.7,286046963.2,N
1502113535.5,286046962.6,N
1502113555.4,286046962.8,N
1502113575.2,286046964.3,N
1502113595.0,286046960.0,N
1502113595.9,286046960.0,N
1502113615.8,286046960.5,N
1502113635.6,286046961.0,N
1502113655.4,286046962.6,N
1502113675.3,286046962.7,N
1502113695.1,286046962.3,N
1502113696.0,286046962.3,N
1502113715.8,286046962.6,N
1502113735.7,286046962.4,N
1502113755.5,286046962.6,N
1502113775.3,286046962.3,N
1502113795.2,286046962.6,N
1502113815.9,286046959.7,N
1502113835.7,286046960.8,N
1502113855.5,286046962.4,N
1502113875.4,286046959.9,N
1502113895.2,286046961.0,N
1502113915.0,286046962.3,N
1502113915.9,286046962.3,N
1502113935.8,286046960.2,N
1502113955.6,286046961.7,N
1502113975.4,286046965.0,N
1502113995.3,286046966.0,N
1502114015.1,286046965.9,N
1502114016.0,286046965.9,N
1502114035.8,286046963.8,N
1502114055.7,286046965.6,N
1502114075.5,286046963.5,N
1502114095.3,286046963.2,N
1502114115.2,286046965.8,N
1502114135.9,286046964.3,N
1502114155.7,286046961.6,N
1502114175.6,286046964.3,N
1502114195.4,286046964.0,N
1502114215.2,286046964.2,N
1502114235.0,286046962.8,N
1502114236.0,286046962.8,N
1502114255.8,286046961.7,N
1502114275.6,286046963.9,N
1502114295.4,286046962.6,N
1502114315.3,286046960.2,N
1502114335.1,286046960.8,N
1502114355.8,286046961.9,N
1502114375.7,286046962.5,N
1502114395.5,286046959.8,N
